FW2611 Weather Reports


Display with metric or nautical units.
time (UTC)temp
F
wind
direction
speed
MPH
gust
MPH
rain 1hr
in
rain 24hr
in
rain mn
in
humidity
%
barometer
mb
20260902191522 78 105 6.0 12.0 0.00 0.61 0.00 79 1019.2
20260902190042 79 94 6.0 11.0 0.00 0.61 0.00 75 1019.8
20260902184530 79 48 3.0 10.0 0.00 0.61 0.00 74 1020.5
20260902183013 81 55 5.0 11.0 0.00 0.61 0.00 71 1020.6
20260902181516 82 54 5.0 12.0 0.00 0.61 0.00 71 1020.8
20260902180033 83 82 6.0 13.0 0.00 0.61 0.00 69 1020.7
20260902174527 83 32 6.0 13.0 0.00 0.61 0.00 70 1020.6
20260902173037 82 94 9.0 16.0 0.00 0.61 0.00 71 1020.2
20260902171540 83 89 9.0 17.0 0.00 0.61 0.00 69 1020.2
20260902170021 83 61 6.0 14.0 0.00 0.61 0.00 71 1020.1
20260902164503 82 82 7.0 15.0 0.00 0.61 0.00 72 1020.1
20260902163008 82 69 10.0 16.0 0.00 0.61 0.00 73 1020.1
20260902161524 82 63 5.0 14.0 0.00 0.61 0.00 72 1020.1
20260902160015 82 80 7.0 15.0 0.00 0.61 0.00 73 1020.0
20260902154532 81 105 8.0 15.0 0.00 0.61 0.00 73 1020.0
20260902153004 81 80 10.0 16.0 0.00 0.61 0.00 72 1020.1
20260902151509 80 84 9.0 15.0 0.00 0.61 0.00 73 1020.2
20260902150012 80 67 10.0 16.0 0.00 0.61 0.00 74 1020.3
20260902144523 80 99 9.0 15.0 0.00 0.61 0.00 76 1020.2
20260902143030 79 76 11.0 17.0 0.00 0.61 0.00 78 1020.1
20260902141504 78 88 4.0 13.0 0.00 0.61 0.00 81 1020.1
20260902140009 77 47 8.0 14.0 0.00 0.61 0.00 82 1019.9
20260902134521 78 89 8.0 15.0 0.00 0.61 0.00 82 1019.6
20260902133028 77 69 7.0 17.0 0.00 0.61 0.00 82 1019.4
20260902131527 77 86 8.0 18.0 0.00 0.61 0.00 84 1019.2
20260902130010 76 95 8.0 16.0 0.00 0.61 0.00 85 1019.0
20260902124511 76 33 7.0 15.0 0.00 0.61 0.00 85 1019.4
20260902123017 75 70 9.0 16.0 0.00 0.61 0.00 86 1019.3
20260902121524 75 67 6.0 14.0 0.00 0.61 0.00 87 1019.2
20260902120028 75 67 8.0 18.0 0.00 0.61 0.00 88 1019.2
20260902114510 75 96 11.0 17.0 0.00 0.61 0.00 88 1019.1
20260902113018 75 79 10.0 16.0 0.00 0.61 0.00 89 1018.9
20260902111524 74 78 8.0 15.0 0.00 0.61 0.00 89 1018.8
20260902110028 74 65 7.0 16.0 0.00 0.61 0.00 90 1018.6
20260902104534 74 86 5.0 14.0 0.00 0.61 0.00 90 1018.5
20260902103012 74 49 7.0 11.0 0.00 0.61 0.00 91 1018.4
20260902101520 74 51 5.0 12.0 0.00 0.61 0.00 91 1018.3
20260902100023 74 74 4.0 14.0 0.00 0.61 0.00 92 1018.3
20260902094529 74 32 4.0 10.0 0.00 0.61 0.00 92 1018.3
20260902093030 74 82 4.0 10.0 0.00 0.61 0.00 93 1018.0
20260902091516 73 55 7.0 11.0 0.00 0.61 0.00 93 1018.0
20260902090025 73 33 2.0 7.0 0.00 0.61 0.00 93 1018.0
20260902084530 73 9 4.0 9.0 0.00 0.61 0.00 93 1017.9
20260902083028 72 309 3.0 9.0 0.00 0.61 0.00 93 1018.0
20260902081530 72 320 5.0 9.0 0.00 0.61 0.00 93 1017.8
20260902080018 72 338 3.0 10.0 0.00 0.61 0.00 92 1017.6
20260902074525 72 40 3.0 10.0 0.00 0.61 0.00 92 1017.5
20260902073027 72 347 3.0 9.0 0.00 0.61 0.00 92 1017.4
20260902071530 72 39 4.0 10.0 0.00 0.61 0.00 92 1017.4
20260902070031 72 13 4.0 9.0 0.00 0.61 0.00 91 1017.4
20260902064524 72 9 6.0 11.0 0.00 0.61 0.00 90 1017.4
20260902063051 72 5 4.0 7.0 0.00 0.61 0.00 89 1017.7
20260902061508 72 9 4.0 9.0 0.00 0.61 0.00 90 1017.7
20260902060012 73 342 4.0 8.0 0.00 0.61 0.00 90 1017.3
20260902054519 72 13 2.0 9.0 0.00 0.61 0.00 90 1017.1
20260902053022 73 351 1.0 10.0 0.00 0.61 0.00 90 1017.1
20260902051537 73 352 2.0 5.0 0.00 0.61 0.00 89 1017.3
20260902050009 73 360 4.0 8.0 0.00 0.61 0.00 89 1017.3
20260902044516 73 209 0.0 2.0 0.00 0.61 0.00 88 1017.0
20260902043018 73 207 1.0 5.0 0.00 0.61 0.00 88 1016.8
20260902041541 72 188 4.0 10.0 0.00 0.61 0.00 89 1017.1
20260902040028 71 221 1.0 4.0 0.00 0.61 0.00 89 1017.0
20260902034512 71 134 0.0 7.0 0.00 0.61 0.61 89 1016.6
20260902033017 70 113 5.0 12.0 0.00 0.61 0.61 89 1016.6
20260902031523 71 103 4.0 11.0 0.17 0.61 0.61 91 1016.9
20260902030026 71 103 6.0 12.0 0.61 0.61 0.61 91 1017.3
20260902024530 71 55 9.0 20.0 0.61 0.61 0.61 92 1017.7
20260902023013 71 58 8.0 28.0 0.61 0.61 0.61 90 1017.8
20260902021522 72 12 18.0 34.0 0.44 0.44 0.44 88 1017.7
20260902020023 79 19 8.0 11.0 0.00 0.00 0.00 88 1015.9
20260902014533 79 221 2.0 9.0 0.00 0.00 0.00 88 1014.9
20260902013034 79 171 2.0 10.0 0.00 0.00 0.00 89 1014.2
20260902011519 79 161 2.0 10.0 0.00 0.00 0.00 89 1014.0
20260902010022 79 169 3.0 8.0 0.00 0.00 0.00 89 1013.9
20260902004533 79 187 3.0 8.0 0.00 0.00 0.00 88 1014.1
20260902003108 79 214 5.0 9.0 0.00 0.00 0.00 88 1014.1
20260902001534 80 210 6.0 11.0 0.00 0.00 0.00 88 1014.0
20260902000032 80 198 5.0 9.0 0.00 0.00 0.00 87 1013.9
20260901234523 80 205 5.0 10.0 0.00 0.00 0.00 86 1014.2
20260901233027 80 218 3.0 7.0 0.00 0.00 0.00 86 1014.3
20260901231529 81 213 4.0 10.0 0.00 0.00 0.00 85 1014.5
20260901230031 82 210 7.0 14.0 0.00 0.00 0.00 83 1014.3
20260901224521 83 177 3.0 11.0 0.00 0.00 0.00 80 1014.4
20260901223024 85 196 4.0 9.0 0.00 0.00 0.00 77 1014.3
20260901221538 86 209 6.0 11.0 0.00 0.00 0.00 75 1014.6
20260901220023 87 186 5.0 11.0 0.00 0.00 0.00 74 1014.7
20260901214516 87 165 5.0 12.0 0.00 0.00 0.00 73 1014.6
20260901213022 88 185 7.0 12.0 0.00 0.00 0.00 72 1014.8
20260901211504 88 210 6.0 12.0 0.00 0.00 0.00 71 1014.9
20260901210007 89 203 7.0 13.0 0.00 0.00 0.00 69 1014.8
20260901204514 90 204 5.0 12.0 0.00 0.00 0.00 68 1014.7
20260901203020 90 178 5.0 12.0 0.00 0.00 0.00 66 1014.7
20260901201523 90 192 5.0 10.0 0.00 0.00 0.00 68 1014.7
20260901200029 88 209 7.0 12.0 0.00 0.00 0.00 70 1015.2
20260901194508 89 205 4.0 9.0 0.00 0.00 0.00 70 1015.3
20260901193016 90 171 4.0 11.0 0.00 0.00 0.00 68 1015.4